SWR81N OIIP-OPKC

Flight info

Callsign SWR81N
Flight time 2h 34m
Altitude 35000
Route RUS1G RUS T211 OXADU M715 PEKES L124 PG G210 DOSTI DOSTI1E
Aircraft A321/M-SDE3FGHIRWY/LB1

Departure

Time 2026-05-08 16:33
Airport Payam International Airport (OIIP)

Arrival

Time 2026-05-08 19:08
Airport Jinnah International Airport (OPKC)
Time Latitude Longitude Altitude Speed Heading
2026-05-08 15:48 35.76687 50.83460 4203 ft 0 kts 212°
2026-05-08 15:48 35.76682 50.83456 4201 ft 0 kts 212°
2026-05-08 16:23 35.76701 50.83471 4205 ft 4 kts 212°
2026-05-08 16:23 35.76724 50.83489 4203 ft 4 kts 212°
2026-05-08 16:23 35.76747 50.83507 4204 ft 3 kts 212°
2026-05-08 16:23 35.76766 50.83519 4204 ft 4 kts 180°
2026-05-08 16:24 35.76789 50.83510 4202 ft 4 kts 137°
2026-05-08 16:24 35.76799 50.83498 4205 ft 1 kts 129°
2026-05-08 16:24 35.76800 50.83496 4204 ft 0 kts 129°
2026-05-08 16:27 35.76789 50.83512 4202 ft 3 kts 129°
2026-05-08 16:27 35.76776 50.83532 4204 ft 3 kts 129°
2026-05-08 16:28 35.76759 50.83558 4203 ft 6 kts 129°
2026-05-08 16:28 35.76725 50.83609 4205 ft 10 kts 128°
2026-05-08 16:28 35.76694 50.83690 4204 ft 10 kts 98°
2026-05-08 16:28 35.76721 50.83762 4204 ft 9 kts 61°
2026-05-08 16:29 35.76710 50.83832 4203 ft 9 kts 121°
2026-05-08 16:29 35.76675 50.83890 4204 ft 8 kts 127°
2026-05-08 16:29 35.76642 50.83943 4204 ft 8 kts 128°
2026-05-08 16:29 35.76609 50.83996 4204 ft 8 kts 128°
2026-05-08 16:30 35.76572 50.84055 4204 ft 9 kts 127°
2026-05-08 16:30 35.76530 50.84123 4203 ft 10 kts 127°
2026-05-08 16:30 35.76526 50.84190 4202 ft 8 kts 55°
2026-05-08 16:30 35.76565 50.84229 4202 ft 7 kts 38°
2026-05-08 16:31 35.76600 50.84235 4203 ft 4 kts 333°
2026-05-08 16:31 35.76612 50.84218 4203 ft 0 kts 309°
2026-05-08 16:32 35.76614 50.84216 4203 ft 3 kts 309°
2026-05-08 16:32 35.76743 50.84017 4204 ft 64 kts 308°
2026-05-08 16:32 35.77149 50.83385 4202 ft 122 kts 308°
2026-05-08 16:33 35.77776 50.82412 4204 ft 166 kts 308°
2026-05-08 16:33 35.78558 50.81195 4321 ft 191 kts 308°
2026-05-08 16:33 35.79363 50.79911 4834 ft 192 kts 308°
2026-05-08 16:33 35.80186 50.78622 5522 ft 191 kts 308°
2026-05-08 16:34 35.81011 50.77339 6001 ft 193 kts 308°
2026-05-08 16:34 35.82133 50.76368 6127 ft 207 kts 342°
2026-05-08 16:34 35.83606 50.76395 6242 ft 224 kts 19°
2026-05-08 16:34 35.84845 50.77607 6371 ft 240 kts 59°
2026-05-08 16:35 35.85234 50.79656 6493 ft 260 kts 98°
2026-05-08 16:35 35.84513 50.81745 6649 ft 277 kts 134°
2026-05-08 16:35 35.82913 50.83091 7064 ft 283 kts 159°
2026-05-08 16:35 35.81032 50.83838 7645 ft 285 kts 167°
2026-05-08 16:36 35.79117 50.84376 8292 ft 287 kts 169°
2026-05-08 16:36 35.77168 50.84912 8964 ft 288 kts 168°
2026-05-08 16:36 35.75192 50.85330 9601 ft 289 kts 174°
2026-05-08 16:36 35.73190 50.85620 10229 ft 291 kts 174°
2026-05-08 16:37 35.71116 50.85919 10431 ft 311 kts 174°
2026-05-08 16:37 35.68901 50.86256 10545 ft 331 kts 174°
2026-05-08 16:37 35.66557 50.86639 10740 ft 346 kts 174°
2026-05-08 16:37 35.64151 50.87053 11257 ft 351 kts 174°
2026-05-08 16:38 35.61725 50.87482 11867 ft 354 kts 174°
2026-05-08 16:38 35.59284 50.87919 12507 ft 355 kts 174°
2026-05-08 16:38 35.56867 50.88352 13185 ft 356 kts 174°
2026-05-08 16:38 35.54407 50.88790 13846 ft 358 kts 174°
2026-05-08 16:39 35.51930 50.89230 14375 ft 361 kts 175°
2026-05-08 16:39 35.49427 50.89672 14893 ft 366 kts 175°
2026-05-08 16:39 35.46901 50.90171 15430 ft 371 kts 170°
2026-05-08 16:39 35.44441 50.91206 15966 ft 378 kts 158°
2026-05-08 16:40 35.42175 50.92892 16516 ft 386 kts 146°
2026-05-08 16:40 35.40083 50.94993 17054 ft 390 kts 144°
2026-05-08 16:40 35.37986 50.97110 17586 ft 392 kts 145°
2026-05-08 16:40 35.35898 50.99210 18086 ft 395 kts 145°
2026-05-08 16:41 35.33763 51.01348 18556 ft 398 kts 145°
2026-05-08 16:41 35.31615 51.03496 19001 ft 400 kts 145°
2026-05-08 16:41 35.29455 51.05658 19446 ft 402 kts 145°
2026-05-08 16:42 35.25104 51.10011 20338 ft 406 kts 146°
2026-05-08 16:42 35.22908 51.12207 20783 ft 408 kts 146°
2026-05-08 16:42 35.20701 51.14407 21194 ft 411 kts 146°
2026-05-08 16:42 35.18474 51.16624 21601 ft 414 kts 146°
2026-05-08 16:43 35.16256 51.18901 22017 ft 420 kts 142°
2026-05-08 16:43 35.14293 51.21594 22423 ft 430 kts 131°
2026-05-08 16:43 35.12738 51.24697 22828 ft 439 kts 121°
2026-05-08 16:43 35.11387 51.28059 23231 ft 442 kts 121°
2026-05-08 16:44 35.10030 51.31438 23617 ft 445 kts 121°
2026-05-08 16:44 35.08659 51.34840 23918 ft 448 kts 122°
2026-05-08 16:44 35.07274 51.38274 24186 ft 452 kts 122°
2026-05-08 16:44 35.05881 51.41722 24503 ft 454 kts 122°
2026-05-08 16:45 35.04479 51.45188 24835 ft 456 kts 123°
2026-05-08 16:45 35.03067 51.48663 25167 ft 458 kts 123°
2026-05-08 16:45 35.01648 51.52151 25492 ft 460 kts 123°
2026-05-08 16:45 35.00225 51.55652 25816 ft 461 kts 123°
2026-05-08 16:46 34.98795 51.59163 26106 ft 463 kts 124°
2026-05-08 16:46 34.97355 51.62682 26425 ft 464 kts 124°
2026-05-08 16:46 34.95930 51.66158 26749 ft 466 kts 124°
2026-05-08 16:46 34.94481 51.69696 27074 ft 467 kts 124°
2026-05-08 16:47 34.93029 51.73248 27382 ft 469 kts 124°
2026-05-08 16:47 34.91573 51.76812 27686 ft 471 kts 124°
2026-05-08 16:47 34.90112 51.80387 27985 ft 472 kts 125°
2026-05-08 16:47 34.88645 51.83974 28252 ft 474 kts 125°
2026-05-08 16:48 34.87172 51.87573 28553 ft 475 kts 125°
2026-05-08 16:48 34.85698 51.91174 28879 ft 476 kts 125°
2026-05-08 16:48 34.84218 51.94783 29173 ft 477 kts 125°
2026-05-08 16:48 34.82731 51.98399 29461 ft 478 kts 126°
2026-05-08 16:49 34.81240 52.02018 29778 ft 479 kts 126°
2026-05-08 16:49 34.79751 52.05634 30136 ft 478 kts 126°
2026-05-08 16:49 34.78280 52.09202 30375 ft 479 kts 126°
2026-05-08 16:49 34.76670 52.12709 30617 ft 469 kts 134°
2026-05-08 16:50 34.74715 52.15807 30939 ft 455 kts 142°
2026-05-08 16:50 34.72484 52.18469 31233 ft 446 kts 148°
2026-05-08 16:50 34.70184 52.20997 31516 ft 446 kts 148°
2026-05-08 16:50 34.67884 52.23525 31808 ft 446 kts 148°
2026-05-08 16:51 34.65590 52.26049 32132 ft 445 kts 148°
2026-05-08 16:51 34.63299 52.28575 32445 ft 445 kts 148°
2026-05-08 16:51 34.61012 52.31103 32754 ft 444 kts 148°
2026-05-08 16:51 34.58726 52.33628 33062 ft 444 kts 148°
2026-05-08 16:52 34.56440 52.36145 33369 ft 443 kts 148°
2026-05-08 16:52 34.54184 52.38621 33674 ft 443 kts 148°
2026-05-08 16:52 34.51901 52.41129 33970 ft 443 kts 149°
2026-05-08 16:52 34.49618 52.43632 34221 ft 442 kts 149°
2026-05-08 16:53 34.45049 52.48631 34626 ft 443 kts 149°
2026-05-08 16:53 34.42759 52.51138 34849 ft 443 kts 149°
2026-05-08 16:53 34.40470 52.53642 34952 ft 443 kts 149°
2026-05-08 16:54 34.35903 52.58645 34964 ft 442 kts 149°
2026-05-08 16:54 34.31338 52.63637 34965 ft 443 kts 149°
2026-05-08 16:55 34.26788 52.68592 34963 ft 443 kts 149°
2026-05-08 16:55 34.22201 52.73574 34966 ft 443 kts 149°
2026-05-08 16:56 34.17613 52.78552 34939 ft 444 kts 149°
2026-05-08 16:56 34.13007 52.83537 34947 ft 446 kts 149°
2026-05-08 16:57 34.08408 52.88510 34938 ft 448 kts 149°
2026-05-08 16:57 34.03770 52.93530 34936 ft 449 kts 149°
2026-05-08 16:58 33.99118 52.98561 34933 ft 450 kts 149°
2026-05-08 16:58 33.94452 53.03602 34927 ft 451 kts 149°
2026-05-08 16:59 33.89767 53.08639 34926 ft 452 kts 149°
2026-05-08 16:59 33.85067 53.13681 34933 ft 453 kts 150°
2026-05-08 17:00 33.80389 53.18692 34928 ft 454 kts 150°
2026-05-08 17:00 33.75671 53.23742 34940 ft 454 kts 150°
2026-05-08 17:01 33.70944 53.28798 34931 ft 456 kts 150°
2026-05-08 17:01 33.66200 53.33864 34950 ft 456 kts 150°
2026-05-08 17:02 33.61494 53.38891 34955 ft 456 kts 150°
2026-05-08 17:02 33.56753 53.43935 34930 ft 455 kts 150°
2026-05-08 17:03 33.52009 53.48975 34928 ft 456 kts 150°
2026-05-08 17:03 33.47249 53.54002 34939 ft 456 kts 150°
2026-05-08 17:04 33.42476 53.59023 34937 ft 457 kts 150°
2026-05-08 17:04 33.37833 53.64195 34955 ft 469 kts 142°
2026-05-08 17:05 33.33924 53.70605 34972 ft 478 kts 136°
2026-05-08 17:05 33.30079 53.77098 34930 ft 478 kts 136°
2026-05-08 17:06 33.26225 53.83567 34925 ft 477 kts 136°
2026-05-08 17:06 33.22369 53.90021 34937 ft 477 kts 136°
2026-05-08 17:07 33.18515 53.96461 34931 ft 476 kts 136°
2026-05-08 17:07 33.14663 54.02896 34932 ft 476 kts 136°
2026-05-08 17:08 33.10826 54.09281 34920 ft 477 kts 136°
2026-05-08 17:08 33.06961 54.15699 34917 ft 476 kts 136°
2026-05-08 17:09 33.03090 54.22107 34912 ft 476 kts 137°
2026-05-08 17:09 32.99221 54.28521 34889 ft 477 kts 136°
2026-05-08 17:10 32.95350 54.34929 34897 ft 476 kts 136°
2026-05-08 17:10 32.91505 54.41280 34908 ft 476 kts 136°
2026-05-08 17:11 32.87628 54.47665 34912 ft 476 kts 136°
2026-05-08 17:11 32.83748 54.54039 34890 ft 476 kts 136°
2026-05-08 17:12 32.79868 54.60414 34903 ft 476 kts 136°
2026-05-08 17:12 32.75989 54.66792 34914 ft 476 kts 136°
2026-05-08 17:13 32.72131 54.73112 34918 ft 476 kts 136°
2026-05-08 17:13 32.68240 54.79470 34902 ft 476 kts 136°
2026-05-08 17:14 32.64340 54.85832 34911 ft 477 kts 136°
2026-05-08 17:14 32.60430 54.92202 34915 ft 478 kts 136°
2026-05-08 17:15 32.56518 54.98578 34895 ft 478 kts 136°
2026-05-08 17:15 32.52626 55.04903 34903 ft 478 kts 136°
2026-05-08 17:16 32.48695 55.11274 34911 ft 479 kts 136°
2026-05-08 17:16 32.44699 55.17555 34923 ft 476 kts 138°
2026-05-08 17:17 32.40596 55.23704 34907 ft 475 kts 139°
2026-05-08 17:17 32.36482 55.29831 34925 ft 476 kts 138°
2026-05-08 17:18 32.32385 55.35990 34930 ft 477 kts 138°
2026-05-08 17:18 32.28296 55.42165 34953 ft 477 kts 138°
2026-05-08 17:19 32.24199 55.48332 34937 ft 477 kts 138°
2026-05-08 17:19 32.20098 55.54489 34962 ft 477 kts 138°
2026-05-08 17:20 32.16008 55.60614 34966 ft 479 kts 138°
2026-05-08 17:20 32.11886 55.66796 34962 ft 480 kts 138°
2026-05-08 17:21 32.07756 55.72987 34967 ft 481 kts 138°
2026-05-08 17:21 32.03612 55.79166 34961 ft 480 kts 138°
2026-05-08 17:22 31.99490 55.85293 34969 ft 481 kts 137°
2026-05-08 17:22 31.95331 55.91470 34977 ft 481 kts 137°
2026-05-08 17:23 31.91172 55.97652 35000 ft 482 kts 137°
2026-05-08 17:23 31.87011 56.03833 34994 ft 482 kts 137°
2026-05-08 17:24 31.82844 56.10004 34995 ft 482 kts 138°
2026-05-08 17:24 31.78668 56.16169 35006 ft 482 kts 137°
2026-05-08 17:25 31.74493 56.22327 35023 ft 481 kts 137°
2026-05-08 17:25 31.70352 56.28430 35030 ft 481 kts 138°
2026-05-08 17:26 31.66177 56.34570 35006 ft 480 kts 137°
2026-05-08 17:26 31.62004 56.40694 34998 ft 481 kts 137°
2026-05-08 17:27 31.57815 56.46817 35011 ft 481 kts 137°
2026-05-08 17:27 31.53626 56.52947 34989 ft 482 kts 137°
2026-05-08 17:28 31.49439 56.59076 34965 ft 482 kts 137°
2026-05-08 17:28 31.45247 56.65211 34972 ft 482 kts 137°
2026-05-08 17:29 31.41762 56.70285 34986 ft 481 kts 137°
2026-05-08 17:29 31.36885 56.77365 34981 ft 480 kts 137°
2026-05-08 17:30 31.32693 56.83441 34996 ft 479 kts 137°
2026-05-08 17:30 31.28504 56.89501 34946 ft 479 kts 136°
2026-05-08 17:31 31.25019 56.94532 34962 ft 478 kts 136°
2026-05-08 17:31 31.20813 57.00543 34944 ft 477 kts 137°
2026-05-08 17:32 31.16474 57.06388 34906 ft 475 kts 139°
2026-05-08 17:32 31.12088 57.12149 34894 ft 474 kts 139°
2026-05-08 17:33 31.07747 57.17905 34888 ft 477 kts 138°
2026-05-08 17:33 31.03391 57.23747 34892 ft 477 kts 138°
2026-05-08 17:34 30.99026 57.29598 34884 ft 478 kts 138°
2026-05-08 17:34 30.94647 57.35442 34868 ft 479 kts 137°
2026-05-08 17:35 30.90256 57.41285 34857 ft 480 kts 138°
2026-05-08 17:35 30.85885 57.47090 34887 ft 480 kts 138°
2026-05-08 17:36 30.81485 57.52937 34838 ft 480 kts 138°
2026-05-08 17:36 30.77093 57.58792 34852 ft 480 kts 137°
2026-05-08 17:37 30.72710 57.64661 34824 ft 481 kts 137°
2026-05-08 17:37 30.68328 57.70520 34829 ft 480 kts 137°
2026-05-08 17:38 30.63967 57.76335 34790 ft 480 kts 137°
2026-05-08 17:38 30.59581 57.82184 34759 ft 480 kts 137°
2026-05-08 17:39 30.55193 57.88020 34759 ft 479 kts 137°
2026-05-08 17:39 30.50798 57.93838 34759 ft 479 kts 137°
2026-05-08 17:40 30.46407 57.99659 34749 ft 480 kts 137°
2026-05-08 17:40 30.42003 58.05482 34736 ft 480 kts 137°
2026-05-08 17:41 30.37593 58.11305 34752 ft 481 kts 137°
2026-05-08 17:41 30.33210 58.17086 34751 ft 481 kts 137°
2026-05-08 17:42 30.28797 58.22899 34756 ft 481 kts 137°
2026-05-08 17:42 30.24372 58.28722 34737 ft 482 kts 137°
2026-05-08 17:43 30.19948 58.34538 34742 ft 482 kts 137°
2026-05-08 17:43 30.15546 58.40315 34747 ft 482 kts 137°
2026-05-08 17:44 30.11112 58.46122 34751 ft 482 kts 137°
2026-05-08 17:44 30.06677 58.51920 34740 ft 482 kts 137°
2026-05-08 17:45 30.02231 58.57714 34740 ft 482 kts 137°
2026-05-08 17:45 29.97788 58.63519 34758 ft 483 kts 137°
2026-05-08 17:46 29.93369 58.69282 34743 ft 483 kts 137°
2026-05-08 17:46 29.88881 58.75035 34748 ft 482 kts 138°
2026-05-08 17:47 29.84356 58.80733 34755 ft 482 kts 138°
2026-05-08 17:47 29.80592 58.85472 34772 ft 483 kts 138°
2026-05-08 17:48 29.75308 58.92153 34760 ft 482 kts 138°
2026-05-08 17:48 29.70824 58.97821 34752 ft 482 kts 138°
2026-05-08 17:49 29.66309 59.03511 34769 ft 481 kts 138°
2026-05-08 17:49 29.61795 59.09188 34748 ft 481 kts 138°
2026-05-08 17:50 29.57281 59.14864 34753 ft 481 kts 137°
2026-05-08 17:50 29.52799 59.20505 34747 ft 481 kts 137°
2026-05-08 17:51 29.48284 59.26165 34770 ft 481 kts 137°
2026-05-08 17:51 29.43766 59.31813 34770 ft 480 kts 138°
2026-05-08 17:52 29.39252 59.37451 34784 ft 480 kts 138°
2026-05-08 17:53 29.32484 59.45901 34786 ft 479 kts 137°
2026-05-08 17:53 29.27977 59.51516 34809 ft 479 kts 137°
2026-05-08 17:54 29.23500 59.57085 34813 ft 478 kts 137°
2026-05-08 17:54 29.18995 59.62678 34819 ft 477 kts 137°
2026-05-08 17:55 29.14495 59.68259 34812 ft 477 kts 137°
2026-05-08 17:55 29.09993 59.73832 34842 ft 477 kts 137°
2026-05-08 17:56 29.05490 59.79397 34843 ft 477 kts 137°
2026-05-08 17:56 29.01016 59.84921 34868 ft 477 kts 136°
2026-05-08 17:57 28.97307 59.91270 34853 ft 486 kts 120°
2026-05-08 17:57 28.94232 59.98129 34892 ft 485 kts 121°
2026-05-08 17:58 28.91126 60.04970 34902 ft 485 kts 121°
2026-05-08 17:58 28.88029 60.11749 34932 ft 485 kts 121°
2026-05-08 17:59 28.84916 60.18576 34953 ft 485 kts 121°
2026-05-08 17:59 28.81810 60.25393 34948 ft 484 kts 121°
2026-05-08 18:00 28.78700 60.32211 34983 ft 484 kts 121°
2026-05-08 18:00 28.74061 60.42365 35006 ft 483 kts 121°
2026-05-08 18:01 28.70948 60.49152 35001 ft 483 kts 120°
2026-05-08 18:01 28.67836 60.55923 35018 ft 483 kts 120°
2026-05-08 18:02 28.65245 60.61550 35018 ft 482 kts 120°
2026-05-08 18:02 28.61603 60.69452 35022 ft 482 kts 120°
2026-05-08 18:03 28.58504 60.76160 35050 ft 482 kts 120°
2026-05-08 18:03 28.55386 60.82909 35032 ft 482 kts 120°
2026-05-08 18:04 28.52262 60.89656 35045 ft 482 kts 120°
2026-05-08 18:04 28.49131 60.96399 35026 ft 482 kts 120°
2026-05-08 18:05 28.46001 61.03137 35022 ft 482 kts 120°
2026-05-08 18:05 28.42890 61.09824 35009 ft 482 kts 120°
2026-05-08 18:06 28.39747 61.16557 35004 ft 483 kts 120°
2026-05-08 18:06 28.36601 61.23302 34988 ft 484 kts 120°
2026-05-08 18:07 28.33446 61.30048 34986 ft 484 kts 120°
2026-05-08 18:07 28.30288 61.36792 34982 ft 484 kts 120°
2026-05-08 18:08 28.27153 61.43482 34985 ft 483 kts 120°
2026-05-08 18:08 28.23988 61.50204 34987 ft 483 kts 120°
2026-05-08 18:09 28.20823 61.56916 34993 ft 482 kts 120°
2026-05-08 18:09 28.17660 61.63622 34982 ft 482 kts 120°
2026-05-08 18:10 28.14488 61.70314 34974 ft 482 kts 121°
2026-05-08 18:10 28.11305 61.76989 34974 ft 482 kts 121°
2026-05-08 18:11 28.08152 61.83626 34981 ft 482 kts 121°
2026-05-08 18:11 28.04979 61.90305 34980 ft 482 kts 120°
2026-05-08 18:12 28.01800 61.96972 34964 ft 481 kts 120°
2026-05-08 18:12 27.98614 62.03630 34966 ft 482 kts 120°
2026-05-08 18:13 27.95421 62.10294 34936 ft 482 kts 120°
2026-05-08 18:13 27.92225 62.16948 34916 ft 481 kts 120°
2026-05-08 18:14 27.89047 62.23550 34928 ft 481 kts 120°
2026-05-08 18:14 27.85851 62.30199 34897 ft 482 kts 120°
2026-05-08 18:15 27.82656 62.36854 34899 ft 482 kts 120°
2026-05-08 18:15 27.79440 62.43507 34879 ft 483 kts 120°
2026-05-08 18:16 27.76220 62.50158 34881 ft 483 kts 121°
2026-05-08 18:16 27.73026 62.56765 34843 ft 483 kts 120°
2026-05-08 18:17 27.69805 62.63408 34863 ft 483 kts 120°
2026-05-08 18:17 27.66576 62.70047 34834 ft 483 kts 120°
2026-05-08 18:18 27.63340 62.76681 34834 ft 483 kts 120°
2026-05-08 18:18 27.60102 62.83311 34836 ft 482 kts 120°
2026-05-08 18:19 27.56889 62.89893 34833 ft 483 kts 120°
2026-05-08 18:19 27.53636 62.96512 34840 ft 483 kts 120°
2026-05-08 18:20 27.50385 63.03126 34830 ft 482 kts 120°
2026-05-08 18:20 27.47138 63.09738 34853 ft 482 kts 120°
2026-05-08 18:21 27.43882 63.16333 34835 ft 482 kts 120°
2026-05-08 18:21 27.40643 63.22886 34843 ft 482 kts 120°
2026-05-08 18:22 27.37379 63.29483 34823 ft 482 kts 120°
2026-05-08 18:22 27.34111 63.36065 34848 ft 481 kts 120°
2026-05-08 18:23 27.30850 63.42638 34843 ft 481 kts 120°
2026-05-08 18:23 27.27592 63.49203 34842 ft 481 kts 120°
2026-05-08 18:24 27.24349 63.55729 34846 ft 482 kts 120°
2026-05-08 18:24 27.21076 63.62297 34841 ft 482 kts 120°
2026-05-08 18:25 27.17796 63.68859 34850 ft 482 kts 120°
2026-05-08 18:25 27.14522 63.75411 34864 ft 481 kts 120°
2026-05-08 18:26 27.11243 63.81959 34876 ft 481 kts 120°
2026-05-08 18:26 27.07961 63.88509 34879 ft 482 kts 120°
2026-05-08 18:27 27.05227 63.93950 34879 ft 482 kts 120°
2026-05-08 18:27 27.01401 64.01558 34898 ft 482 kts 120°
2026-05-08 18:28 26.98105 64.08092 34894 ft 482 kts 120°
2026-05-08 18:28 26.94353 64.14281 34899 ft 480 kts 134°
2026-05-08 18:29 26.89371 64.19222 34899 ft 479 kts 142°
2026-05-08 18:29 26.84288 64.23960 34903 ft 479 kts 142°
2026-05-08 18:30 26.79175 64.28745 34905 ft 479 kts 142°
2026-05-08 18:30 26.74059 64.33529 34902 ft 479 kts 142°
2026-05-08 18:31 26.68940 64.38303 34919 ft 479 kts 142°
2026-05-08 18:31 26.63811 64.43078 34904 ft 480 kts 142°
2026-05-08 18:32 26.58707 64.47815 34904 ft 481 kts 142°
2026-05-08 18:32 26.53561 64.52587 34900 ft 481 kts 142°
2026-05-08 18:33 26.48417 64.57355 34901 ft 480 kts 142°
2026-05-08 18:33 26.43278 64.62121 34906 ft 480 kts 142°
2026-05-08 18:34 26.38142 64.66882 34897 ft 480 kts 142°
2026-05-08 18:34 26.33044 64.71596 34897 ft 479 kts 142°
2026-05-08 18:35 26.27904 64.76337 34893 ft 479 kts 142°
2026-05-08 18:35 26.22773 64.81060 34902 ft 478 kts 142°
2026-05-08 18:36 26.17652 64.85787 34897 ft 478 kts 142°
2026-05-08 18:36 26.12527 64.90501 34899 ft 478 kts 142°
2026-05-08 18:37 26.07435 64.95170 34898 ft 478 kts 142°
2026-05-08 18:37 26.02305 64.99874 34899 ft 478 kts 142°
2026-05-08 18:38 25.97369 65.04844 34879 ft 481 kts 131°
2026-05-08 18:38 25.93750 65.11085 34874 ft 482 kts 118°
2026-05-08 18:39 25.92163 65.14381 34740 ft 484 kts 118°
2026-05-08 18:39 25.90572 65.17673 34507 ft 484 kts 118°
2026-05-08 18:39 25.88973 65.20972 34276 ft 485 kts 118°
2026-05-08 18:39 25.87394 65.24221 34058 ft 485 kts 118°
2026-05-08 18:40 25.85787 65.27518 33823 ft 486 kts 118°
2026-05-08 18:40 25.84179 65.30815 33562 ft 485 kts 118°
2026-05-08 18:40 25.82572 65.34113 33306 ft 486 kts 118°
2026-05-08 18:40 25.80965 65.37409 33054 ft 486 kts 118°
2026-05-08 18:41 25.79353 65.40715 32804 ft 487 kts 118°
2026-05-08 18:41 25.77744 65.44014 32557 ft 487 kts 118°
2026-05-08 18:41 25.76132 65.47318 32302 ft 487 kts 118°
2026-05-08 18:41 25.74519 65.50624 31915 ft 487 kts 117°
2026-05-08 18:42 25.72905 65.53930 31507 ft 487 kts 117°
2026-05-08 18:42 25.71292 65.57232 31109 ft 486 kts 117°
2026-05-08 18:42 25.69686 65.60513 30714 ft 482 kts 117°
2026-05-08 18:42 25.68088 65.63773 30325 ft 480 kts 117°
2026-05-08 18:43 25.66518 65.66970 29945 ft 478 kts 117°
2026-05-08 18:43 25.64935 65.70194 29495 ft 474 kts 117°
2026-05-08 18:43 25.63367 65.73393 29038 ft 470 kts 116°
2026-05-08 18:43 25.61818 65.76557 28597 ft 465 kts 116°
2026-05-08 18:44 25.60280 65.79686 28167 ft 460 kts 116°
2026-05-08 18:44 25.58754 65.82784 27726 ft 456 kts 117°
2026-05-08 18:44 25.57240 65.85853 27308 ft 452 kts 117°
2026-05-08 18:44 25.55740 65.88894 26900 ft 448 kts 117°
2026-05-08 18:45 25.54252 65.91908 26489 ft 444 kts 117°
2026-05-08 18:45 25.52796 65.94852 26100 ft 441 kts 116°
2026-05-08 18:45 25.51330 65.97819 25698 ft 438 kts 116°
2026-05-08 18:45 25.49876 66.00765 25308 ft 434 kts 116°
2026-05-08 18:46 25.48435 66.03686 24920 ft 431 kts 116°
2026-05-08 18:46 25.47006 66.06582 24552 ft 427 kts 116°
2026-05-08 18:46 25.45586 66.09451 24163 ft 423 kts 116°
2026-05-08 18:46 25.44178 66.12296 23791 ft 420 kts 116°
2026-05-08 18:47 25.42782 66.15118 23414 ft 416 kts 116°
2026-05-08 18:47 25.41400 66.17909 22974 ft 412 kts 116°
2026-05-08 18:47 25.40027 66.20679 22537 ft 409 kts 116°
2026-05-08 18:47 25.38683 66.23391 22100 ft 406 kts 116°
2026-05-08 18:48 25.37327 66.26121 21690 ft 404 kts 116°
2026-05-08 18:48 25.35976 66.28837 21275 ft 402 kts 116°
2026-05-08 18:48 25.34632 66.31539 20863 ft 400 kts 117°
2026-05-08 18:48 25.33298 66.34225 20453 ft 397 kts 116°
2026-05-08 18:49 25.31983 66.36900 20055 ft 395 kts 116°
2026-05-08 18:49 25.30667 66.39554 19659 ft 393 kts 116°
2026-05-08 18:49 25.29356 66.42189 19267 ft 390 kts 116°
2026-05-08 18:49 25.28051 66.44807 18882 ft 388 kts 116°
2026-05-08 18:50 25.26752 66.47410 18502 ft 386 kts 116°
2026-05-08 18:50 25.25461 66.49993 18118 ft 383 kts 116°
2026-05-08 18:50 25.24176 66.52564 17684 ft 381 kts 116°
2026-05-08 18:50 25.22899 66.55119 17253 ft 379 kts 116°
2026-05-08 18:51 25.21630 66.57655 16830 ft 376 kts 116°
2026-05-08 18:51 25.20370 66.60173 16411 ft 373 kts 116°
2026-05-08 18:51 25.19135 66.62643 16004 ft 371 kts 116°
2026-05-08 18:51 25.17893 66.65126 15617 ft 369 kts 116°
2026-05-08 18:52 25.16653 66.67601 15286 ft 367 kts 116°
2026-05-08 18:52 25.15420 66.70059 14959 ft 366 kts 116°
2026-05-08 18:52 25.14191 66.72507 14634 ft 364 kts 115°
2026-05-08 18:52 25.12970 66.74944 14312 ft 362 kts 115°
2026-05-08 18:53 25.11754 66.77370 13994 ft 360 kts 115°
2026-05-08 18:53 25.10542 66.79781 13657 ft 358 kts 115°
2026-05-08 18:53 25.09349 66.82145 13269 ft 346 kts 115°
2026-05-08 18:53 25.08204 66.84410 12895 ft 331 kts 115°
2026-05-08 18:54 25.07109 66.86578 12542 ft 317 kts 115°
2026-05-08 18:54 25.06074 66.88632 12205 ft 305 kts 115°
2026-05-08 18:54 25.05058 66.90651 11871 ft 299 kts 115°
2026-05-08 18:54 25.04055 66.92651 11540 ft 297 kts 115°
2026-05-08 18:55 25.02070 66.96616 10881 ft 293 kts 115°
2026-05-08 18:55 25.01085 66.98577 10556 ft 291 kts 115°
2026-05-08 18:55 25.00105 67.00524 10237 ft 289 kts 116°
2026-05-08 18:56 24.99131 67.02454 9919 ft 287 kts 117°
2026-05-08 18:56 24.98163 67.04366 9592 ft 284 kts 117°
2026-05-08 18:56 24.97206 67.06260 9242 ft 282 kts 117°
2026-05-08 18:56 24.96257 67.08140 8898 ft 280 kts 117°
2026-05-08 18:57 24.95315 67.10007 8558 ft 278 kts 117°
2026-05-08 18:57 24.94693 67.11235 8329 ft 276 kts 117°
2026-05-08 18:57 24.93490 67.13608 7923 ft 253 kts 118°
2026-05-08 18:57 24.92670 67.15225 7675 ft 241 kts 118°
2026-05-08 18:58 24.91859 67.16826 7399 ft 237 kts 118°
2026-05-08 18:58 24.91060 67.18402 7124 ft 235 kts 118°
2026-05-08 18:58 24.90247 67.19951 6875 ft 233 kts 120°
2026-05-08 18:58 24.89434 67.21457 6595 ft 224 kts 120°
2026-05-08 18:59 24.88644 67.22909 6320 ft 219 kts 121°
2026-05-08 18:59 24.87865 67.24342 6041 ft 217 kts 121°
2026-05-08 18:59 24.87095 67.25762 5753 ft 215 kts 121°
2026-05-08 18:59 24.86329 67.27181 5466 ft 216 kts 122°
2026-05-08 19:00 24.85823 67.28119 5277 ft 215 kts 122°
2026-05-08 19:00 24.84855 67.30027 4905 ft 217 kts 114°
2026-05-08 19:00 24.84496 67.31639 4624 ft 219 kts 98°
2026-05-08 19:00 24.84585 67.33329 4332 ft 224 kts 81°
2026-05-08 19:01 24.85131 67.34946 4048 ft 228 kts 62°
2026-05-08 19:01 24.85947 67.36447 3765 ft 229 kts 60°
2026-05-08 19:01 24.86938 67.37824 3474 ft 231 kts 41°
2026-05-08 19:01 24.88285 67.38773 3197 ft 230 kts 20°
2026-05-08 19:02 24.89823 67.39173 3024 ft 226 kts
2026-05-08 19:02 24.91366 67.39012 2997 ft 222 kts 341°
2026-05-08 19:02 24.92834 67.38566 2999 ft 216 kts 340°
2026-05-08 19:02 24.94242 67.38056 3013 ft 208 kts 326°
2026-05-08 19:03 24.95192 67.36963 3011 ft 199 kts 292°
2026-05-08 19:03 24.95400 67.35510 3010 ft 192 kts 260°
2026-05-08 19:03 24.95067 67.34093 2998 ft 191 kts 253°
2026-05-08 19:03 24.94729 67.32722 2774 ft 177 kts 253°
2026-05-08 19:04 24.94410 67.31446 2566 ft 170 kts 253°
2026-05-08 19:04 24.94099 67.30211 2362 ft 164 kts 253°
2026-05-08 19:04 24.93801 67.29030 2148 ft 156 kts 254°
2026-05-08 19:04 24.93517 67.27905 1961 ft 150 kts 254°
2026-05-08 19:05 24.93237 67.26801 1764 ft 148 kts 254°
2026-05-08 19:05 24.92964 67.25721 1578 ft 150 kts 254°
2026-05-08 19:05 24.92682 67.24608 1384 ft 150 kts 254°
2026-05-08 19:05 24.92406 67.23518 1195 ft 147 kts 254°
2026-05-08 19:06 24.92134 67.22447 1023 ft 143 kts 254°
2026-05-08 19:06 24.91870 67.21401 834 ft 142 kts 254°
2026-05-08 19:06 24.91604 67.20352 664 ft 143 kts 254°
2026-05-08 19:06 24.91341 67.19315 475 ft 139 kts 254°
2026-05-08 19:07 24.91082 67.18294 297 ft 138 kts 253°
2026-05-08 19:07 24.90826 67.17274 135 ft 137 kts 253°
2026-05-08 19:07 24.90584 67.16317 104 ft 117 kts 254°
2026-05-08 19:07 24.90417 67.15670 104 ft 61 kts 254°
2026-05-08 19:08 24.90350 67.15403 104 ft 16 kts 254°
2026-05-08 19:08 24.90318 67.15279 104 ft 19 kts 254°
2026-05-08 19:08 24.90275 67.15108 104 ft 27 kts 253°
2026-05-08 19:08 24.90169 67.14945 103 ft 26 kts 223°
2026-05-08 19:09 24.90116 67.14888 102 ft 0 kts 224°
2026-05-08 19:09 24.90109 67.14881 103 ft 4 kts 218°
2026-05-08 19:10 24.90082 67.14867 103 ft 5 kts 191°
2026-05-08 19:10 24.90043 67.14878 102 ft 6 kts 158°
2026-05-08 19:10 24.90031 67.14935 102 ft 6 kts 75°
2026-05-08 19:10 24.90032 67.14939 102 ft 0 kts 75°
2026-05-08 19:12 24.90032 67.14941 102 ft 2 kts 75°
2026-05-08 19:12 24.90041 67.14977 102 ft 6 kts 74°
2026-05-08 19:12 24.90060 67.15049 101 ft 9 kts 74°
2026-05-08 19:12 24.90073 67.15098 101 ft 10 kts 74°
2026-05-08 19:13 24.90094 67.15180 102 ft 12 kts 74°
2026-05-08 19:13 24.90115 67.15268 101 ft 12 kts 75°
2026-05-08 19:13 24.90138 67.15358 101 ft 13 kts 75°
2026-05-08 19:13 24.90161 67.15452 101 ft 13 kts 74°
2026-05-08 19:14 24.90186 67.15549 101 ft 13 kts 74°
2026-05-08 19:14 24.90211 67.15646 102 ft 13 kts 74°
2026-05-08 19:14 24.90236 67.15745 102 ft 14 kts 75°
2026-05-08 19:14 24.90261 67.15845 102 ft 14 kts 75°
2026-05-08 19:15 24.90287 67.15950 102 ft 14 kts 75°
2026-05-08 19:15 24.90314 67.16057 102 ft 15 kts 74°
2026-05-08 19:15 24.90342 67.16165 102 ft 15 kts 74°
2026-05-08 19:15 24.90369 67.16271 101 ft 14 kts 74°
2026-05-08 19:16 24.90343 67.16356 102 ft 12 kts 154°
2026-05-08 19:16 24.90297 67.16427 101 ft 12 kts 92°
2026-05-08 19:16 24.90315 67.16508 100 ft 10 kts 74°
2026-05-08 19:16 24.90334 67.16582 101 ft 10 kts 75°
2026-05-08 19:17 24.90352 67.16656 101 ft 10 kts 78°
2026-05-08 19:17 24.90326 67.16723 101 ft 10 kts 146°
2026-05-08 19:17 24.90257 67.16749 101 ft 11 kts 165°
2026-05-08 19:17 24.90219 67.16730 101 ft 5 kts 246°
2026-05-08 19:18 24.90205 67.16703 101 ft 4 kts 241°
2026-05-08 19:18 24.90194 67.16681 101 ft 2 kts 241°
2026-05-08 19:18 24.90193 67.16678 101 ft 0 kts 241°